This is the latest recevied weather packets stored in our database for station/object JF7BTK-10. If no packets are shown the sender has not sent any weather packets the latest 10 day(s).
| Time | Temp. | Humidity | Pressure | Rain* | Wind** | Luminosity | Snow |
|---|---|---|---|---|---|---|---|
| 1777880635 | 15.56° C | 74% | 988.3 hPa | 0 mm | - | - | - |
| 1777879734 | 15.56° C | 75% | 988.3 hPa | 0 mm | - | - | - |
| 1777878835 | 15.56° C | 78% | 988.4 hPa | 0 mm | - | - | - |
| 1777877935 | 15.56° C | 77% | 988.4 hPa | 0 mm | - | - | - |
| 1777877036 | 15° C | 79% | 988.5 hPa | 0 mm | - | - | - |
| 1777876136 | 14.44° C | 79% | 988.7 hPa | 0 mm | - | - | - |
| 1777875236 | 14.44° C | 78% | 988.5 hPa | 0 mm | - | - | - |
| 1777874335 | 15° C | 79% | 988.4 hPa | 0 mm | - | - | - |
| 1777873435 | 15° C | 80% | 988.4 hPa | 0 mm | - | - | - |
| 1777872536 | 15° C | 79% | 988.2 hPa | 0 mm | - | - | - |
| 1777871635 | 15.56° C | 78% | 988 hPa | 0.25 mm | - | - | - |
| 1777870737 | 15.56° C | 79% | 988.1 hPa | 0.25 mm | - | - | - |
| 1777869837 | 15.56° C | 80% | 988.4 hPa | 0.25 mm | - | - | - |
| 1777868937 | 16.11° C | 81% | 988.2 hPa | 0.25 mm | - | - | - |
| 1777868036 | 15.56° C | 81% | 988.2 hPa | 0 mm | - | - | - |
| 1777867135 | 16.11° C | 83% | 988.1 hPa | 0 mm | - | - | - |
| 1777866235 | 15° C | 83% | 988.3 hPa | 0 mm | - | - | - |
| 1777865336 | 14.44° C | 84% | 988.2 hPa | 0 mm | - | - | - |
| 1777864435 | 15° C | 85% | 988.1 hPa | 0 mm | - | - | - |
| 1777863535 | 14.44° C | 85% | 987.9 hPa | 0 mm | - | - | - |
| 1777862636 | 14.44° C | 84% | 988.1 hPa | 0 mm | - | - | - |
| 1777861735 | 14.44° C | 83% | 988.3 hPa | 0 mm | - | - | - |
| 1777860836 | 15° C | 83% | 988.3 hPa | 0 mm | - | - | - |
| 1777859936 | 15° C | 85% | 988.3 hPa | 0 mm | - | - | - |
| 1777859036 | 15.56° C | 86% | 988.1 hPa | 0 mm | - | - | - |
* Rain latest hour (hover to see other rain measurements)
** Current wind speed in m/s (hover to see current wind gust speed)